This is the latest recevied weather packets stored in our database for station/object N0HEQ. If no packets are shown the sender has not sent any weather packets the latest 10 day(s).
| Time | Temp. | Humidity | Pressure | Rain* | Wind** | Luminosity | Snow |
|---|---|---|---|---|---|---|---|
| 1777279532 | 3.89° C | 93% | 1008.6 hPa | 0 mm | - | 0 W/m² | - |
| 1777279229 | 4.44° C | 93% | 1008.7 hPa | 0 mm | - | 0 W/m² | - |
| 1777278927 | 4.44° C | 93% | 1008.7 hPa | 0 mm | - | 0 W/m² | - |
| 1777278622 | 4.44° C | 93% | 1008.6 hPa | 0 mm | - | 0 W/m² | - |
| 1777278319 | 5° C | 93% | 1008.9 hPa | 0 mm | - | 0 W/m² | - |
| 1777278015 | 5° C | 93% | 1008.8 hPa | 0 mm | - | 0 W/m² | - |
| 1777277713 | 5° C | 93% | 1008.7 hPa | 0 mm | - | 0 W/m² | - |
| 1777277409 | 5° C | 92% | 1008.7 hPa | 0 mm | - | 0 W/m² | - |
| 1777277103 | 5° C | 92% | 1008.7 hPa | 0 mm | - | 0 W/m² | - |
| 1777276798 | 5.56° C | 92% | 1008.3 hPa | 0 mm | - | 0 W/m² | - |
| 1777276496 | 5° C | 92% | 1008.1 hPa | 0 mm | - | 0 W/m² | - |
| 1777276192 | 5° C | 92% | 1008.2 hPa | 0 mm | - | 0 W/m² | - |
| 1777275889 | 5.56° C | 91% | 1008.4 hPa | 0 mm | - | 0 W/m² | - |
| 1777275587 | 5.56° C | 91% | 1009 hPa | 0 mm | - | 0 W/m² | - |
| 1777275284 | 5.56° C | 91% | 1009.1 hPa | 0 mm | - | 0 W/m² | - |
| 1777274978 | 5.56° C | 91% | 1008.9 hPa | 0 mm | - | 0 W/m² | - |
| 1777274676 | 6.11° C | 91% | 1009.1 hPa | 0 mm | - | 0 W/m² | - |
| 1777274373 | 6.11° C | 91% | 1009.1 hPa | 0 mm | - | 0 W/m² | - |
| 1777274072 | 5.56° C | 91% | 1009.4 hPa | 0 mm | - | 0 W/m² | - |
| 1777273770 | 5.56° C | 91% | 1008.8 hPa | 0 mm | - | 0 W/m² | - |
| 1777273468 | 5.56° C | 91% | 1008.6 hPa | 0 mm | - | 0 W/m² | - |
| 1777273165 | 5.56° C | 91% | 1008.6 hPa | 0 mm | - | 0 W/m² | - |
| 1777272862 | 6.11° C | 91% | 1008.6 hPa | 0 mm | - | 0 W/m² | - |
| 1777272560 | 6.11° C | 90% | 1008.7 hPa | 0 mm | - | 0 W/m² | - |
| 1777272258 | 6.11° C | 90% | 1008.7 hPa | 0 mm | - | 0 W/m² | - |
* Rain latest hour (hover to see other rain measurements)
** Current wind speed in m/s (hover to see current wind gust speed)